Harvard, Illinois, United States (60033)
Lat: 42.42N, Lon: 88.61W
Wx Zone: ILZ005
Local Info
Past Weather Observations for Today

NOTE: This archive is for the closest National Weather Service station to Harvard. Information may differ from the station used for current weather conditions.

Click here for Long-term Archive

Time Weather Temperature Dewpoint Humidity Pressure Winds Precip Visibility
22:55
Partly Cloudy
61°F / 16°C 54°F / 12°C 77% 29.95 in
(1014 mb)
SSW 8.1 mph
(SSW 13 kph)
- 10SM
22:35
Clear
Drizzle
61°F / 16°C 54°F / 12°C 77% 29.95 in
(1014 mb)
SSW 6.9 mph
(SSW 11 kph)
- 10SM
22:15
Partly Cloudy
Drizzle
61°F / 16°C 54°F / 12°C 77% 29.95 in
(1014 mb)
SSW 8.1 mph
(SSW 13 kph)
- 10SM
21:55
Mostly Cloudy
61°F / 16°C 54°F / 12°C 77% 29.95 in
(1014 mb)
W 9.2 mph
(W 15 kph)
- 10SM
21:35
Partly Cloudy
63°F / 17°C 54°F / 12°C 73% 29.95 in
(1014 mb)
W 6.9 mph
(W 11 kph)
- 10SM
21:15
Partly Cloudy
63°F / 17°C 54°F / 12°C 73% 29.95 in
(1014 mb)
W 6.9 mph
(W 11 kph)
- 10SM
20:55
Mostly Cloudy
64°F / 18°C 54°F / 12°C 68% 29.95 in
(1014 mb)
W 9.2 mph
(W 15 kph)
- 10SM
20:35
Overcast
64°F / 18°C 55°F / 13°C 73% 29.95 in
(1014 mb)
W 8.1 mph
(W 13 kph)
- 10SM
20:15
Mostly Cloudy
66°F / 19°C 55°F / 13°C 68% 29.95 in
(1014 mb)
W 12.7 mph
(W 20 kph)
- 10SM
19:55
Mostly Cloudy
68°F / 20°C 61°F / 16°C 78% 29.95 in
(1014 mb)
W 17.3 mph
(W 28 kph)
- 10SM
19:35
Overcast
70°F / 21°C 63°F / 17°C 78% 29.92 in
(1013 mb)
W 13.8 mph
(W 22 kph)
- 10SM
19:15
Overcast
Rain
72°F / 22°C 66°F / 19°C 83% 29.92 in
(1013 mb)
W 13.8 mph
(W 22 kph)
- 10SM
18:55
Overcast
Drizzle
70°F / 21°C 70°F / 21°C 100% 29.89 in
(1012 mb)
Calm - 4SM
18:35
Overcast
Fog And Mist
72°F / 22°C 70°F / 21°C 94% 29.89 in
(1012 mb)
Calm - 5SM
18:15
Mostly Cloudy
Fog And Mist
70°F / 21°C 70°F / 21°C 100% 29.89 in
(1012 mb)
W 4.6 mph
(W 7 kph)
- 5SM
17:55
Overcast
72°F / 22°C 70°F / 21°C 94% 29.89 in
(1012 mb)
E 5.8 mph
(E 9 kph)
- 7SM
17:35
Mostly Cloudy
Fog And Mist
72°F / 22°C 70°F / 21°C 94% 29.89 in
(1012 mb)
NE 3.5 mph
(NE 6 kph)
- 5SM
17:15
Partly Cloudy
Fog And Mist
72°F / 22°C 70°F / 21°C 94% 29.89 in
(1012 mb)
NNE 3.5 mph
(NNE 6 kph)
- 5SM
16:55
Partly Cloudy
73°F / 23°C 72°F / 22°C 94% 29.89 in
(1012 mb)
NE 3.5 mph
(NE 6 kph)
- 10SM
16:35
Partly Cloudy
73°F / 23°C 72°F / 22°C 94% 29.89 in
(1012 mb)
Calm - 7SM
16:15
Clear
73°F / 23°C 70°F / 21°C 89% 29.89 in
(1012 mb)
Calm - 10SM
15:55
Partly Cloudy
73°F / 23°C 70°F / 21°C 89% 29.89 in
(1012 mb)
Calm 0.06 in
(1.52 mm)
10SM
15:35
Mostly Cloudy
Heavy Rain
72°F / 22°C 70°F / 21°C 94% 29.89 in
(1012 mb)
Calm 0.06 in
(1.52 mm)
3SM
15:15
Partly Cloudy
73°F / 23°C 72°F / 22°C 94% 29.92 in
(1013 mb)
Calm - 7SM
14:55
Overcast
Light Rain
72°F / 22°C 68°F / 20°C 88% 29.92 in
(1013 mb)
S 4.6 mph
(S 7 kph)
0.51 in
(12.95 mm)
1SM
14:35
Mostly Cloudy
Heavy Rain
77°F / 25°C 66°F / 19°C 69% 29.92 in
(1013 mb)
S 8.1 mph
(S 13 kph)
0.02 in
(0.51 mm)
5SM
14:15
Clear
81°F / 27°C 64°F / 18°C 58% 29.89 in
(1012 mb)
SSE 9.2 mph
(SSE 15 kph)
- 10SM
13:55
Clear
82°F / 28°C 64°F / 18°C 55% 29.92 in
(1013 mb)
S 9.2 mph
(S 15 kph)
- 10SM
13:35
Clear
82°F / 28°C 64°F / 18°C 55% 29.92 in
(1013 mb)
SSE 12.7 mph
(SSE 20 kph)
- 10SM
13:15
Clear
82°F / 28°C 64°F / 18°C 55% 29.95 in
(1014 mb)
SSE 12.7 mph
(SSE 20 kph)
- 10SM
12:55
Clear
82°F / 28°C 64°F / 18°C 55% 29.95 in
(1014 mb)
SSE 11.5 mph
(SSE 19 kph)
- 10SM
12:35
Clear
82°F / 28°C 64°F / 18°C 55% 29.98 in
(1015 mb)
S 8.1 mph
(S 13 kph)
- 10SM
12:15
Clear
81°F / 27°C 66°F / 19°C 6 1000 2% 29.98 in
(1015 mb)
SSE 9.2 mph
(SSE 15 kph)
- 10SM
11:55
Partly Cloudy
79°F / 26°C 64°F / 18°C 61% 30.01 in
(1016 mb)
SE 11.5 mph
(SE 19 kph)
- 10SM
11:35
Partly Cloudy
79°F / 26°C 64°F / 18°C 61% 30.01 in
(1016 mb)
SSE 8.1 mph
(SSE 13 kph)
- 10SM
11:15
Clear
79°F / 26°C 64°F / 18°C 61% 30.01 in
(1016 mb)
SSE 10.4 mph
(SSE 17 kph)
- 10SM
10:55
Clear
75°F / 24°C 64°F / 18°C 69% 30.04 in
(1017 mb)
S 6.9 mph
(S 11 kph)
- 10SM
10:35
Clear
75°F / 24°C 63°F / 17°C 65% 30.04 in
(1017 mb)
S 5.8 mph
(S 9 kph)
- 10SM
10:15
Clear
73°F / 23°C 63°F / 17°C 69% 30.04 in
(1017 mb)
SSE 6.9 mph
(SSE 11 kph)
- 10SM
09:55
Clear
73°F / 23°C 63°F / 17°C 69% 30.04 in
(1017 mb)
SSE 4.6 mph
(SSE 7 kph)
- 10SM
09:35
Clear
73°F / 23°C 63°F / 17°C 69% 30.04 in
(1017 mb)
SE 6.9 mph
(SE 11 kph)
- 10SM
09:15
Clear
72°F / 22°C 63°F / 17°C 73% 30.06 in
(1018 mb)
SSE 8.1 mph
(SSE 13 kph)
- 10SM
08:55
Clear
70°F / 21°C 61°F / 16°C 73% 30.06 in
(1018 mb)
SSE 8.1 mph
(SSE 13 kph)
- 10SM
08:35
Clear
68°F / 20°C 61°F / 16°C 78% 30.06 in
(1018 mb)
SSE 8.1 mph
(SSE 13 kph)
- 10SM
08:15
Clear
68°F / 20°C 61°F / 16°C 78% 30.06 in
(1018 mb)
SE 9.2 mph
(SE 15 kph)
- 10SM
07:55
Clear
66°F / 19°C 61°F / 16°C 83% 30.06 in
(1018 mb)
SSE 4.6 mph
(SSE 7 kph)
- 10SM
07:35
1000 Partly Cloudy
Partly Cloudy
64°F / 18°C 61°F / 16°C 88% 30.06 in
(1018 mb)
SSE 4.6 mph
(SSE 7 kph)
- 10SM
07:15
Partly Cloudy
64°F / 18°C 61°F / 16°C 88% 30.06 in
(1018 mb)
SSE 10.4 mph
(SSE 17 kph)
- 10SM
06:55
Clear
63°F / 17°C 61°F / 16°C 94% 30.09 in
(1019 mb)
SSE 5.8 mph
(SSE 9 kph)
- 10SM
06:35
Clear
63°F / 17°C 61°F / 16°C 94% 30.09 in
(1019 mb)
SE 5.8 mph
(SE 9 kph)
- 10SM
06:15
Clear
61°F / 16°C 61°F / 16°C 100% 30.06 in
(1018 mb)
SE 4.6 mph
(SE 7 kph)
- 7SM
05:55
Partly Cloudy
61°F / 16°C 61°F / 16°C 100% 30.09 in
(1019 mb)
SSE 3.5 mph
(SSE 6 kph)
- 7SM
05:35
Partly Cloudy
Fog And Mist
61°F / 16°C 61°F / 16°C 100% 30.09 in
(1019 mb)
SE 3.5 mph
(SE 6 kph)
- 5SM
05:15
Clear
Fog And Mist
61°F / 16°C 61°F / 16°C 100% 30.09 in
(1019 mb)
SE 3.5 mph
(SE 6 kph)
- 5SM
04:55
Clear
61°F / 16°C 61°F / 16°C 100% 30.09 in
(1019 mb)
SE 3.5 mph
(SE 6 kph)
- 7SM
04:35
Partly Cloudy
Fog And Mist
61°F / 16°C 61°F / 16°C 100% 30.09 in
(1019 mb)
SE 5.8 mph
(SE 9 kph)
- 5SM
04:15
Partly Cloudy
Fog And Mist
59°F / 15°C 59°F / 15°C 100% 30.09 in
(1019 mb)
SSE 3.5 mph
(SSE 6 kph)
- 5SM
03:55
Partly Cloudy
Fog And Mist
57°F / 14°C 57°F / 14°C 100% 30.09 in
(1019 mb)
Calm - 5SM
03:35
Partly Cloudy
Fog And Mist
55°F / 13°C 55°F / 13°C 100% 30.09 in
(1019 mb)
SE 4.6 mph
(SE 7 kph)
- 3SM
02:55
Partly Cloudy
Fog And Mist
55°F / 13°C 55°F / 13°C 100% 30.09 in
(1019 mb)
Calm - 3SM
02:35
Partly Cloudy
Fog And Mist
55°F / 13°C 55°F / 13°C 100% 30.09 in
(1019 mb)
Calm - 4SM
02:15
Partly Cloudy
57°F / 14°C 55°F / 13°C 94% 30.12 in
(1020 mb)
Calm - 7SM
01:55
Clear
55°F / 13°C 55°F / 13°C 100% 30.12 in
(1020 mb)
Calm - 7SM
01:35
Clear
Fog And Mist
57°F / 14°C 55°F / 13°C 94% 30.12 in
(1020 mb)
Calm - 5SM
01:15
Clear
Fog And Mist
57°F / 14°C 55°F / 13°C 94% 30.12 in
(1020 mb)
Calm - 5SM
00:55
Clear
Fog And Mist
55°F / 13°C 55°F / 13°C 100% 30.12 in
(1020 mb)
Calm - 3SM
00:35
Clear
55°F / 13°C 55°F / 13°C 100% 30.12 in
(1020 mb)
Calm - 7SM
00:15
Clear
Fog And Mist
57°F / 14°C 57°F / 14°C 100% 30.12 in
(1020 mb)
Calm - 5SM
Time Weather Temperature Dewpoint Humidity Pressure Winds Precip Visibility


Weather for websites

WeatherForYou.com, LLC is not responsible for any damages or problems caused by this service. Current weather conditions are obtained from the closest station including government and personal stations which may have varying degrees of accuracy. Weather forecasts are derived from the NOAA NDFD. Like all things, this site belongs to Jesus Christ... He just trusts us to maintain it. If you have any questions or comments email webmaster@weatherforyou.com

Copyright © 2016, WeatherForYou.com LLC. All rights reserved.